Regional Weather Roundup
Issued by NWS Jackson, KY

Home | Current Version | Previous Version | Graphics & Text | Print | Product List | Glossary On
Versions: 1 2 3 4 5 6 7 8 9 10 11 12 13 14 15 16 17 18 19 20 21 22 23 24 25 26 27 28 29 30 31 32 33 34 35 36 37 38 39 40 41 42 43 44 45 46 47 48 49 50
415
ASUS43 KJKL 260510
RWRJKL

EAST KENTUCKY HOURLY WEATHER ROUNDUP
NATIONAL WEATHER SERVICE JACKSON KY
100 AM EDT TUE SEP 26 2017

NOTE: "FAIR" INDICATES FEW OR NO CLOUDS BELOW 12,000 FEET WITH
NO SIGNIFICANT WEATHER AND/OR OBSTRUCTIONS TO VISIBILITY.

* THESE REPORTS ARE NOT UNDER NWS QUALITY CONTROL AND MAY NOT
  REPORT WEATHER SUCH AS PRECIPITATION AND FOG.

KYZ079-080-083-085-087-088-110-112-115-119-120-260600
...EASTERN KENTUCKY...

CITY           SKY/WX    TMP DP  RH WIND       PRES   REMARKS
JACKSON        CLEAR     70  62  76 CALM      30.02S
LONDON         CLEAR     63  62  97 CALM      30.01S
SOMERSET*      CLEAR     61  61 100 CALM      30.02S
MONTICELLO*    CLEAR     61  60  97 CALM      30.03R
WILLIAMSBURG*  CLEAR     61  61 100 CALM      30.01S
MIDDLESBORO*   CLEAR     62  62 100 CALM      30.03S
HARLAN APT*    CLEAR     63  61  94 CALM      30.05R
PIKE CO APT*     N/A     70  64  82 SE3       30.03S
BIG SANDY APT* CLEAR     67  66  97 CALM      30.02S
MOREHEAD APT*  PTCLDY    68  63  83 CALM      30.03R
$$

KYZ035-036-041-042-044-050-067-078-099-260600
...CENTRAL KENTUCKY...

CITY           SKY/WX    TMP DP  RH WIND       PRES   REMARKS
MT STERLING*   CLEAR     64  61  88 CALM      30.03S
FLEMING/MASON* CLEAR     65  64  97 CALM      30.02S
DANVILLE*      CLEAR     63  61  94 CALM      30.02S
LEXINGTON      CLEAR     65  61  87 CALM      30.01S
FRANKFORT      CLEAR     66  62  87 CALM      29.99S
LOUISVILLE     CLEAR     77  66  68 CALM      29.98S
LEBANON*         N/A     66  64  94 CALM      30.00S
GLASGOW*       CLEAR     65  65 100 CALM      29.98S
BOWLING GREEN  CLEAR     69  68  96 CALM      29.98R
$$

KYZ091>093-OHZ055-061-077-WVZ005-015-034-035-042-260600
...SOUTHERN OHIO/WEST VIRGINIA...

CITY           SKY/WX    TMP DP  RH WIND       PRES   REMARKS
COVINGTON      CLEAR     73  65  75 CALM      30.01R
COLUMBUS       CLOUDY    70  66  87 CALM      30.01R
DAYTON         PTCLDY    70  61  73 SE7       30.02R
WILMINGTON     CLEAR     68  63  84 CALM      30.02S
HUNTINGTON     CLEAR     66  64  93 E3        30.00S
CHARLESTON     CLEAR     64  62  93 CALM      30.01F
PINEVILLE*     CLEAR     61  59  94 MISG      30.10F
BECKLEY        PTCLDY    62  59  90 CALM      30.09S
BLUEFIELD      MOCLDY    65  58  78 CALM      30.11S
LOGAN CO APT*    N/A     70  63  78 CALM      30.04S
$$

VAZ002-007-008-TNZ017-027-036-066-071-260600
...SOUTHWEST VIRGINIA/EAST TENNESSEE...

CITY           SKY/WX    TMP DP  RH WIND       PRES   REMARKS
WISE*          CLEAR     64  55  72 CALM      30.10S
JONESVILLE*      N/A     59  59 100 CALM      30.05R
ABINGDON*      CLEAR     67  60  79 E3        30.07S
BRISTOL        CLEAR     64  61  90 CALM      30.03S
MORRISTOWN*    CLEAR     66  61  82 CALM      30.00R
SEVIERVILLE*   CLEAR     63  59  88 CALM      29.99S
LAFOLLETTE*    CLEAR     63  63 100 CALM      30.04S
OAK RIDGE      CLEAR     65  62  90 CALM      30.01R
CROSSVILLE     CLEAR     62  61  96 CALM      30.04S
NASHVILLE      CLEAR     70  67  90 CALM      29.97S
$$

...KEY TO REMARKS...
VSB - VISIBILITY IN MILES
WCI - WIND CHILL INDEX
HX  - HEAT INDEX

$$




USA.gov is the U.S. government's official web portal to all federal, state and local government web resources and services.